Content
SEND FEEDBACK

Daily
Averages
Monthly
Summary
United States of America

EARTH CITY, MISSOURI


Home > North America > United States > Missouri
Elevation: 476 feet     Latitude: 38 46N     Longitude: 090 30W

WEATHER
 
SELECT A DAY
Number of Records: 206,508;   Date Range: 1/1/95 - 10/20/14
 
SHARE

PRINT THIS DATA

[ ← Previous Day ]
WEATHER ALMANAC - JANUARY 24, 2013
[ Next Day → ]
[ °C ]   °F
Weather ElementAverageHighLow
Temperature22.4 °F28 °F (11:51 pm)16 °F (6:51 am)
Dewpoint5.2 °F9 °F (11:51 pm)-0.4 °F (8:51 am)
Humidity48.1 %62 % (6:51 am)43 % (1:51 pm)
Barometer30.49 in30.64 in (9:51 am)30.30 in (11:51 pm)
Wind Speed13 mph18.4 mph (7:51 pm)
Wind Gust24.2 mph (1:51 am)
Weather ElementAverage
Visibility10 mi
Wind DirectionESE (107 °)

Weather ElementTotal
Precipitation---
Heating Degree Days43 (Base 65)
Averaged from 23 records on January 24, 2013
WEATHER CONDITIONS BREAKOUT
WIND DIRECTION BREAKOUT
WEATHER BY HOUR - JANUARY 24, 2013
[ °C ]   °F
Local TimeTemperatureDewpointHumidityBarometerVisibilityWind DirectionWind SpeedGust SpeedPrecipitationEventsConditions
1:51 AM24.1 °F7.0 °F48 %30.45 in10.0 miNorth (10°)13.8 mph24.2 mphPartly Cloudy
2:51 AM19.9 °F5.0 °F52 %30.48 in10.0 miNorth (360°)17.3 mph24.2 mphPartly Cloudy
3:51 AM19.0 °F3.9 °F52 %30.52 in10.0 miNorth (10°)10.4 mphScattered Clouds
4:51 AM17.1 °F5.0 °F59 %30.54 in10.0 miNorth (360°)10.4 mphScattered Clouds
5:51 AM17.1 °F5.0 °F59 %30.57 in10.0 miNNE (20°)9.2 mphMostly Cloudy
6:51 AM16.0 °F5.0 °F62 %30.59 in10.0 miNNE (30°)8.1 mphMostly Cloudy
7:51 AM17.1 °F6.1 °F62 %30.60 in10.0 miNE (40°)8.1 mphOvercast
8:51 AM17.6 °F-0.4 °F45 %30.58 in10.0 miEast (80°)11.5 mphOvercast
9:51 AM18.0 °F0.0 °F45 %30.64 in10.0 miENE (60°)13.8 mphOvercast
10:51 AM19.9 °F1.0 °F44 %30.64 in10.0 miENE (70°)12.7 mphOvercast
11:51 AM21.9 °F3.0 °F44 %30.61 in10.0 miEast (80°)10.4 mphMostly Cloudy
12:51 PM23.0 °F3.9 °F44 %30.56 in10.0 miEast (80°)15.0 mphMostly Cloudy
1:51 PM25.0 °F5.0 °F43 %30.52 in10.0 miESE (110°)15.0 mphOvercast
2:51 PM25.0 °F6.1 °F45 %30.51 in10.0 miEast (100°)15.0 mphOvercast
3:51 PM25.0 °F6.1 °F45 %30.48 in10.0 miEast (100°)15.0 mphOvercast
4:51 PM25.0 °F5.0 °F43 %30.46 in10.0 miESE (120°)15.0 mphMostly Cloudy
5:51 PM26.1 °F6.1 °F43 %30.45 in10.0 miESE (110°)12.7 mphMostly Cloudy
6:51 PM24.8 °F6.8 °F46 %30.38 in10.0 miESE (110°)16.1 mph21.9 mphOvercast
7:51 PM26.1 °F7.0 °F44 %30.41 in10.0 miESE (110°)18.4 mphOvercast
8:51 PM26.1 °F8.1 °F47 %30.38 in10.0 miESE (110°)15.0 mphOvercast
9:51 PM27.0 °F8.1 °F45 %30.38 in10.0 miSE (140°)12.7 mphOvercast
10:51 PM27.0 °F8.1 °F45 %30.32 in10.0 miSE (130°)12.7 mphOvercast
11:51 PM28.0 °F9.0 °F45 %30.30 in10.0 miESE (120°)11.5 mphOvercast
Hourly data recorded from KSTL, located miles away from Earth City, Missouri







STORIES FROM OUR PARTNERS